Wind_Speed
3 3 3 4 3 5 6 8 8 9 10 12 13 13 13 12 12 12 12 11 11 11 10 10 10 9 9 8 8 8 8 7 6 6 5 5 5 5 5 5 4 4 5 5 5 6 6 6 7
3 2 2 2 3 4 5 7 7 8 10 12 13 13 13 12 12 12 11 11 11 11 10 10 10 10 9 8 8 8 7 7 6 6 5 5 5 5 5 5 5 5 5 5 6 6 6 7 7
4 3 3 1 2 3 4 6 8 9 11 13 13 13 13 13 12 12 11 11 11 11 10 10 10 10 9 9 8 8 7 7 7 6 6 6 5 5 5 5 6 6 6 6 6 7 7 7 7
6 5 4 2 1 1 3 6 8 10 12 12 11 12 12 12 12 12 12 11 11 11 11 10 10 9 9 9 8 8 7 7 7 6 6 6 6 6 5 6 6 6 5 6 6 6 7 7 8
7 6 5 3 1 2 3 5 8 10 12 11 10 11 12 12 12 12 12 12 11 11 11 10 10 10 9 9 9 8 7 6 7 7 7 7 7 6 6 6 5 4 4 4 5 5 6 7 7
8 8 6 6 4 3 5 6 8 10 12 12 11 12 13 12 12 12 12 12 11 11 11 10 10 10 10 9 8 8 7 7 7 7 7 7 7 6 6 6 4 3 3 4 4 4 5 5 6
9 8 8 8 6 5 5 7 9 11 12 12 12 13 13 13 12 12 11 11 11 11 10 10 10 10 10 9 9 8 7 7 7 7 7 7 6 6 5 5 4 4 4 3 4 4 4 4 5
10 9 10 9 8 6 6 8 9 12 13 13 13 14 14 13 12 10 11 11 11 11 10 10 10 9 9 9 9 8 8 7 8 7 7 6 6 6 5 5 4 4 4 4 4 5 4 4 4
11 11 10 9 8 7 7 9 11 12 14 14 13 14 14 13 12 11 11 10 10 10 10 10 10 9 9 9 9 9 8 8 8 8 7 6 6 6 5 4 4 4 4 4 4 5 4 4 4
12 12 11 9 9 8 8 9 12 13 14 14 13 13 13 13 12 11 10 9 9 9 9 9 9 10 10 10 9 9 9 8 8 8 7 7 7 6 5 4 4 4 4 4 4 4 4 4 4
13 13 12 11 10 10 10 10 12 13 13 13 12 13 13 12 11 10 9 9 9 9 9 9 9 9 10 10 10 9 9 8 8 8 7 7 6 5 5 4 4 4 4 4 4 4 4 4 4
14 14 13 11 12 11 11 12 12 12 13 12 12 12 11 11 12 10 9 9 9 9 8 9 9 9 9 10 10 9 9 8 8 8 7 7 6 5 5 5 4 4 4 4 4 4 4 4 4
15 14 13 12 12 11 11 12 11 12 12 11 11 11 12 12 12 11 10 9 9 8 9 9 9 9 9 10 10 10 10 9 9 8 8 7 6 6 5 5 5 5 4 4 4 5 5 5 4
15 15 13 12 11 11 11 11 11 11 11 10 10 11 12 12 12 11 10 9 9 9 9 10 11 10 10 10 10 10 10 10 9 8 8 7 7 6 5 5 5 5 5 4 4 5 5 5 4
15 16 14 12 11 11 10 11 11 11 11 11 11 12 11 11 11 10 9 8 9 9 10 11 12 11 10 11 11 11 11 11 9 8 8 7 7 7 6 5 5 5 5 5 5 5 5 5 5
15 15 14 12 11 11 12 11 10 11 12 11 11 12 11 12 12 10 9 9 9 10 10 11 11 11 11 11 11 11 11 11 10 9 8 7 7 6 6 5 5 5 5 5 6 5 4 4 5
14 14 13 12 11 11 11 12 12 13 12 12 12 12 12 12 12 10 10 10 10 11 10 10 11 11 11 11 11 11 11 11 11 10 8 8 8 7 7 6 5 6 6 6 5 5 4 4 5
14 13 12 11 9 10 11 13 14 14 13 13 14 13 12 12 12 11 11 11 11 11 10 10 11 11 11 11 11 11 11 11 10 10 9 9 9 8 7 7 6 6 6 6 5 5 5 4 4
16 14 13 12 11 12 13 14 15 16 17 15 14 14 13 13 12 11 11 11 11 11 10 10 10 11 11 11 11 11 10 10 10 10 9 9 9 8 8 8 7 7 7 6 6 6 5 5 5
16 14 13 13 13 15 16 16 16 17 19 16 16 14 13 11 11 11 11 12 12 12 11 11 11 11 10 11 11 10 10 10 10 10 9 9 8 8 8 8 7 7 7 6 6 6 6 6 6
16 15 15 14 14 16 18 19 19 18 18 16 15 15 15 13 12 11 11 12 12 11 11 11 11 11 11 11 11 11 10 10 10 10 10 9 8 8 8 8 7 7 6 6 6 7 6 6 7
15 15 16 16 17 18 20 20 18 19 18 17 17 15 13 13 13 12 12 12 11 11 11 11 11 11 11 12 11 11 10 10 10 10 10 9 9 8 8 8 8 7 7 6 7 7 6 7 7
15 16 17 17 19 19 20 20 18 18 18 18 17 16 14 13 14 14 14 14 13 12 12 12 12 12 12 12 11 11 11 10 10 10 10 9 9 9 9 8 7 8 7 7 7 7 7 7 7
16 18 18 18 20 21 20 21 19 18 18 16 16 15 14 15 16 16 14 14 13 13 13 14 14 14 13 12 11 11 11 11 11 10 10 10 9 9 9 9 8 7 8 8 7 7 8 8 9
17 18 19 20 20 19 18 19 17 17 18 17 15 14 15 16 16 16 15 14 14 14 14 14 14 14 14 13 12 11 11 11 11 11 10 10 9 9 9 9 9 8 8 8 7 7 8 8 9
15 16 18 19 20 19 17 18 17 17 17 16 14 14 16 17 17 16 16 15 15 14 14 14 14 14 14 13 13 12 12 12 12 12 11 10 10 10 10 9 9 9 8 8 8 8 8 8 8
15 16 17 18 19 19 19 18 17 16 16 15 14 15 16 17 16 16 16 17 16 16 16 15 14 14 15 14 14 13 13 13 13 12 11 11 11 11 10 10 10 10 9 9 9 9 9 9 9
17 17 18 19 19 20 20 18 16 16 16 16 15 15 16 17 16 17 18 18 18 18 17 17 15 14 15 15 15 15 14 14 13 13 12 12 12 12 11 12 11 11 10 11 11 10 11 11 10
18 19 19 19 20 21 20 19 18 17 15 15 14 15 16 17 18 18 17 18 18 18 17 16 15 15 15 15 14 14 14 15 15 15 14 13 13 13 13 13 13 12 12 12 12 12 12 12 11
19 19 19 20 20 20 20 20 19 19 17 16 16 17 17 17 18 18 18 18 18 18 17 16 16 17 16 16 16 16 16 16 15 15 14 14 14 14 14 14 14 14 14 14 13 13 13 12 12
Wind_Direction
141 123 101 82 72 71 51 36 26 19 11 9 4 3 2 3 6 7 7 8 11 14 14 13 13 11 10 8 3 359 358 355 351 345 338 327 316 308 300 293 287 282 279 279 279 268 260 256 253
171 154 138 89 69 69 50 32 16 3 358 359 355 355 358 0 5 5 5 8 11 13 13 10 9 9 7 3 357 355 355 353 351 349 342 334 322 313 307 296 291 284 283 286 280 271 263 259 256
201 198 185 129 78 67 38 18 0 355 351 349 349 349 351 358 5 4 4 7 10 12 10 7 5 3 1 358 356 353 351 351 350 347 342 336 325 317 311 303 294 287 285 286 283 274 266 262 262
211 209 209 222 137 30 355 351 346 350 347 345 345 344 348 357 4 4 4 5 8 9 8 5 2 0 358 355 356 355 351 350 350 345 340 337 330 327 323 311 302 287 280 284 286 278 269 266 266
221 218 222 233 252 310 311 327 333 341 339 335 335 338 342 351 360 359 1 2 2 3 5 3 3 1 359 359 360 359 355 350 347 344 340 337 333 331 332 329 324 296 277 282 287 280 268 266 266
221 219 226 237 244 266 292 313 319 323 322 327 332 335 337 344 351 352 355 360 359 0 4 4 4 1 359 359 -0 358 356 351 349 345 342 340 334 330 333 335 329 313 294 285 287 288 268 261 266
221 224 227 229 240 254 281 307 312 315 321 327 328 331 334 337 343 348 349 354 358 1 4 6 5 2 1 359 356 354 352 349 346 344 341 342 338 333 330 335 326 312 301 287 284 291 278 277 275
223 225 220 230 245 255 277 291 304 310 315 319 324 327 330 333 339 346 346 349 355 358 2 3 3 2 0 357 354 351 347 345 343 341 339 336 335 336 332 331 322 313 301 290 288 285 278 282 287
222 225 221 235 253 261 273 287 298 300 305 312 319 320 325 329 334 337 342 349 353 355 357 358 358 359 358 356 352 350 348 345 343 338 336 334 334 335 332 330 327 320 309 301 294 288 293 294 288
223 224 225 236 252 257 269 281 290 293 300 307 316 319 320 322 325 331 337 348 350 354 356 354 354 357 356 353 349 345 346 347 343 337 332 331 332 332 330 323 323 325 321 309 295 288 295 300 294
226 225 228 235 252 258 263 273 285 289 297 302 310 314 316 317 318 326 333 342 346 350 351 350 353 354 354 352 349 346 345 345 340 337 333 331 329 326 322 320 326 328 324 316 310 301 307 309 306
223 225 230 237 251 258 265 274 285 288 294 297 303 310 312 313 317 324 330 335 340 345 346 346 346 348 352 351 350 346 344 342 340 336 331 330 330 322 320 321 324 325 325 323 319 311 300 298 300
223 224 227 234 245 254 265 274 281 292 298 304 306 308 310 313 319 325 332 334 331 336 341 343 343 347 347 347 348 346 342 338 338 338 335 329 323 320 319 318 319 320 319 317 316 314 305 299 295
226 228 227 230 239 254 264 274 282 290 300 310 316 317 313 311 318 322 327 329 329 330 336 340 341 342 341 340 343 343 340 339 337 336 332 325 319 314 311 310 312 317 315 310 317 317 313 304 298
230 231 231 232 238 249 260 270 280 287 293 302 310 318 320 314 317 316 319 323 326 328 330 333 338 336 336 338 338 338 336 335 336 334 331 327 323 318 313 311 311 314 315 318 320 317 314 311 312
232 230 229 233 238 244 257 268 278 284 289 297 304 309 311 310 314 315 316 315 320 324 325 328 333 333 332 333 332 330 329 329 332 332 325 321 322 318 316 314 311 318 317 316 319 320 309 312 312
231 230 229 231 238 248 258 267 272 278 287 293 298 301 302 304 310 311 314 316 315 318 317 322 327 329 330 331 332 327 325 324 325 325 320 315 314 314 310 310 312 315 321 323 322 332 329 322 318
226 228 227 227 232 247 261 266 269 272 278 283 291 294 292 297 301 306 311 312 313 315 315 319 324 327 327 327 329 327 322 322 320 319 316 312 310 307 303 302 306 312 319 320 320 322 323 324 322
229 230 231 227 238 251 255 260 267 267 272 273 282 288 291 291 293 298 303 308 309 312 313 314 318 321 322 322 323 324 322 320 317 314 313 309 309 308 305 298 298 306 314 315 313 315 314 314 310
232 235 235 230 239 253 259 262 264 262 267 269 273 277 285 284 287 292 298 304 306 306 309 312 316 317 318 319 318 319 319 318 315 309 305 301 306 311 312 304 299 302 309 314 313 309 312 308 304
232 237 237 237 244 251 256 257 259 262 268 273 275 278 283 281 285 290 294 299 300 300 304 309 312 314 315 316 315 316 317 317 317 314 309 302 301 303 305 302 300 296 301 308 311 311 309 306 307
234 235 236 240 245 251 252 257 260 261 265 268 273 278 275 277 282 284 288 295 295 295 299 305 309 311 311 313 314 312 311 312 312 312 308 301 297 295 297 300 299 296 298 300 304 305 304 304 306
236 236 236 240 243 249 250 257 258 260 264 267 270 275 274 276 281 281 284 290 295 294 295 301 304 305 305 305 307 306 304 304 304 306 304 298 292 291 291 289 292 295 295 293 297 300 299 299 300
236 237 239 243 243 248 253 259 261 259 260 265 270 276 277 280 280 276 276 281 287 289 290 294 296 299 299 298 298 299 296 295 296 300 299 296 290 287 288 284 284 288 292 291 291 296 300 296 296
237 240 242 242 243 252 258 260 262 259 257 262 270 277 278 277 279 274 273 276 279 282 285 288 293 293 294 293 292 291 290 289 290 290 290 292 291 287 284 283 282 283 288 292 295 300 306 302 295
242 243 244 247 250 254 256 256 256 256 254 260 268 275 277 277 277 276 273 277 281 280 283 287 291 292 290 289 288 287 286 286 286 284 284 284 285 285 280 281 278 280 281 286 291 293 300 301 295
242 241 246 250 249 252 255 256 257 256 257 262 268 274 277 276 278 278 279 280 281 281 282 281 283 285 286 286 284 283 280 281 283 282 279 279 280 279 277 280 279 275 276 279 283 289 293 297 294
242 243 245 250 251 251 253 257 259 263 264 265 266 269 274 277 275 275 279 278 279 279 282 281 281 283 283 283 281 281 280 278 280 278 274 276 276 274 270 276 278 276 274 274 279 284 288 291 288
239 241 245 249 250 252 255 255 258 260 263 264 265 268 274 275 277 279 281 280 277 276 279 278 279 286 285 282 281 281 282 280 279 278 275 273 274 273 271 273 274 275 275 276 279 280 282 283 285
239 237 240 247 250 253 257 259 259 260 260 262 268 270 272 276 280 281 283 282 283 278 278 278 281 284 284 284 282 278 280 280 281 280 277 273 272 273 272 273 274 273 274 275 276 277 278 277 280
Height
5920 5919 5920 5920 5920 5918 5917 5916 5915 5915 5915 5915 5913 5912 5911 5910 5909 5908 5904 5901 5899 5897 5896 5894 5893 5892 5891 5890 5889 5887 5886 5885 5884 5883 5882 5882 5881 5881 5880 5879 5879 5878 5878 5877 5877 5876 5876 5876 5876
5919 5920 5920 5920 5919 5917 5917 5916 5915 5916 5916 5915 5914 5913 5911 5910 5908 5906 5903 5901 5899 5897 5896 5895 5893 5892 5891 5890 5888 5887 5886 5885 5884 5883 5882 5881 5880 5880 5879 5878 5878 5877 5877 5876 5876 5875 5875 5875 5874
5919 5919 5920 5919 5918 5918 5917 5916 5916 5915 5915 5915 5914 5913 5912 5910 5908 5906 5904 5901 5899 5898 5897 5895 5894 5892 5891 5890 5888 5887 5886 5885 5884 5883 5882 5881 5880 5879 5878 5877 5876 5876 5875 5875 5875 5874 5874 5873 5873
5918 5919 5919 5919 5917 5917 5916 5915 5915 5914 5915 5915 5914 5913 5911 5910 5908 5906 5904 5902 5900 5898 5897 5895 5894 5892 5891 5890 5888 5887 5886 5885 5883 5883 5882 5881 5880 5879 5878 5876 5874 5873 5874 5874 5873 5873 5873 5872 5872
5917 5918 5918 5917 5917 5916 5915 5914 5914 5914 5915 5915 5914 5912 5910 5909 5908 5906 5904 5902 5900 5899 5897 5896 5894 5893 5891 5890 5888 5887 5886 5885 5884 5882 5881 5880 5879 5878 5877 5875 5871 5871 5872 5873 5872 5872 5871 5871 5871
5917 5917 5918 5917 5916 5915 5914 5913 5914 5915 5914 5914 5913 5911 5909 5909 5908 5906 5903 5902 5900 5899 5897 5896 5894 5893 5891 5890 5888 5887 5886 5884 5883 5882 5881 5880 5879 5878 5877 5875 5873 5872 5872 5872 5871 5871 5870 5870 5869
5916 5916 5916 5916 5915 5915 5914 5913 5913 5914 5913 5913 5911 5910 5909 5908 5907 5905 5903 5901 5900 5899 5897 5896 5894 5893 5891 5890 5888 5887 5885 5884 5883 5882 5880 5879 5878 5877 5876 5875 5874 5873 5872 5871 5871 5870 5869 5869 5868
5913 5915 5914 5914 5914 5914 5913 5913 5913 5913 5912 5911 5910 5909 5908 5907 5906 5905 5902 5901 5900 5898 5897 5896 5894 5893 5891 5889 5888 5886 5885 5883 5882 5881 5880 5878 5877 5876 5875 5874 5873 5872 5872 5871 5870 5869 5868 5868 5867
5911 5913 5912 5912 5912 5913 5912 5912 5912 5911 5911 5910 5909 5908 5907 5906 5905 5904 5902 5901 5900 5898 5897 5895 5894 5892 5891 5889 5887 5886 5884 5883 5881 5880 5879 5878 5877 5875 5874 5873 5872 5872 5871 5870 5869 5868 5867 5867 5867
5909 5910 5911 5911 5910 5910 5910 5911 5911 5910 5909 5909 5908 5907 5906 5905 5904 5903 5902 5901 5899 5898 5896 5895 5893 5892 5890 5888 5887 5885 5884 5882 5881 5880 5878 5877 5876 5875 5874 5873 5872 5871 5870 5869 5868 5868 5867 5866 5866
5906 5907 5908 5908 5908 5909 5909 5909 5909 5909 5909 5908 5907 5906 5904 5904 5903 5902 5901 5900 5899 5897 5896 5894 5893 5891 5890 5888 5886 5884 5883 5882 5880 5879 5878 5877 5875 5874 5873 5872 5871 5870 5869 5868 5868 5867 5866 5866 5865
5904 5905 5906 5906 5907 5907 5907 5907 5907 5907 5907 5907 5905 5905 5904 5902 5901 5900 5899 5898 5898 5897 5895 5894 5892 5891 5889 5887 5885 5884 5882 5881 5880 5878 5877 5876 5875 5873 5872 5871 5870 5869 5869 5868 5867 5867 5866 5865 5864
5902 5903 5903 5904 5905 5905 5906 5906 5905 5905 5905 5904 5903 5903 5902 5901 5899 5898 5898 5897 5897 5896 5895 5893 5891 5890 5888 5887 5885 5883 5882 5880 5879 5877 5876 5875 5874 5873 5871 5870 5869 5868 5868 5867 5866 5866 5865 5864 5863
5899 5900 5901 5902 5903 5903 5904 5904 5903 5903 5903 5902 5901 5901 5900 5899 5897 5897 5896 5896 5895 5894 5893 5892 5890 5889 5887 5886 5884 5882 5881 5880 5878 5877 5875 5874 5873 5872 5870 5869 5868 5868 5867 5866 5865 5865 5864 5863 5862
5896 5898 5899 5900 5900 5901 5901 5901 5901 5901 5900 5900 5900 5900 5899 5898 5896 5895 5895 5894 5894 5893 5891 5890 5889 5887 5886 5885 5883 5881 5880 5878 5877 5875 5874 5873 5872 5870 5869 5868 5867 5867 5866 5865 5864 5863 5862 5862 5861
5894 5896 5897 5898 5898 5899 5900 5899 5899 5898 5898 5898 5898 5898 5897 5895 5895 5894 5893 5893 5892 5891 5890 5889 5888 5886 5885 5883 5881 5880 5878 5877 5875 5874 5873 5872 5870 5869 5868 5867 5866 5866 5865 5864 5863 5862 5861 5860 5860
5891 5893 5894 5895 5896 5896 5896 5896 5896 5896 5896 5896 5895 5895 5894 5894 5893 5892 5892 5891 5890 5889 5888 5888 5886 5885 5883 5881 5880 5878 5876 5875 5874 5872 5871 5870 5869 5868 5867 5866 5865 5864 5864 5862 5862 5861 5860 5859 5858
5889 5890 5891 5892 5892 5893 5893 5893 5893 5893 5893 5893 5893 5892 5892 5892 5892 5891 5890 5889 5888 5887 5886 5886 5884 5883 5881 5880 5878 5876 5875 5873 5872 5870 5869 5868 5867 5866 5865 5864 5864 5863 5862 5861 5861 5860 5859 5858 5857
5885 5886 5887 5888 5889 5889 5889 5890 5890 5891 5890 5890 5890 5890 5890 5890 5890 5889 5888 5887 5886 5885 5885 5884 5882 5881 5879 5878 5876 5874 5873 5871 5870 5868 5867 5866 5865 5864 5863 5863 5862 5862 5861 5860 5860 5859 5858 5857 5856
5881 5882 5883 5885 5885 5885 5885 5886 5887 5887 5887 5887 5887 5888 5887 5887 5887 5887 5886 5884 5884 5883 5882 5881 5880 5879 5877 5876 5874 5872 5871 5869 5868 5866 5865 5864 5863 5862 5862 5861 5860 5860 5859 5859 5858 5857 5856 5856 5855
5877 5878 5880 5881 5882 5882 5882 5883 5883 5884 5884 5884 5884 5883 5883 5884 5884 5883 5883 5882 5881 5880 5879 5879 5877 5876 5875 5873 5872 5870 5869 5867 5866 5864 5863 5862 5861 5860 5860 5859 5858 5858 5858 5857 5856 5856 5855 5854 5853
5873 5875 5876 5877 5878 5878 5879 5878 5879 5879 5880 5880 5880 5879 5879 5880 5881 5880 5880 5879 5878 5877 5877 5876 5875 5874 5872 5871 5869 5868 5866 5865 5864 5862 5861 5860 5858 5858 5857 5857 5856 5856 5856 5855 5855 5854 5853 5852 5852
5870 5871 5872 5872 5873 5874 5875 5875 5877 5876 5876 5876 5876 5876 5876 5877 5877 5877 5876 5876 5875 5875 5874 5873 5872 5871 5870 5868 5866 5865 5864 5863 5861 5860 5858 5857 5856 5856 5855 5854 5854 5854 5853 5853 5852 5852 5851 5850 5850
5866 5866 5867 5868 5869 5870 5871 5872 5873 5873 5872 5872 5873 5873 5873 5873 5873 5873 5873 5873 5872 5871 5871 5870 5869 5868 5866 5865 5863 5862 5861 5860 5858 5857 5856 5854 5854 5853 5853 5852 5852 5851 5851 5850 5850 5850 5849 5848 5848
5862 5863 5864 5864 5865 5866 5868 5867 5868 5869 5868 5869 5869 5869 5869 5869 5869 5869 5868 5868 5868 5868 5867 5866 5865 5864 5863 5861 5860 5859 5858 5856 5855 5854 5853 5852 5851 5850 5850 5849 5849 5849 5849 5848 5848 5847 5847 5846 5845
5857 5859 5860 5861 5861 5862 5862 5861 5863 5863 5864 5864 5865 5865 5864 5864 5864 5864 5864 5864 5863 5863 5862 5861 5860 5860 5859 5858 5856 5855 5854 5853 5851 5850 5850 5849 5848 5847 5847 5847 5846 5846 5846 5846 5845 5845 5844 5843 5842
5853 5854 5856 5856 5856 5857 5857 5858 5858 5859 5859 5860 5860 5860 5859 5859 5859 5859 5860 5859 5858 5858 5858 5856 5855 5855 5854 5853 5852 5851 5850 5849 5848 5847 5846 5845 5845 5844 5844 5844 5843 5843 5843 5843 5842 5842 5842 5841 5840
5850 5850 5851 5851 5851 5851 5852 5853 5854 5855 5855 5855 5855 5855 5855 5855 5855 5855 5855 5854 5853 5853 5852 5852 5851 5850 5849 5849 5847 5847 5846 5844 5844 5843 5842 5841 5841 5841 5841 5840 5840 5840 5839 5839 5839 5839 5839 5838 5837
5845 5846 5846 5847 5847 5847 5847 5850 5851 5851 5851 5851 5851 5850 5850 5850 5850 5850 5849 5849 5848 5847 5847 5846 5846 5846 5844 5843 5843 5842 5841 5840 5839 5839 5838 5838 5837 5837 5836 5836 5836 5836 5836 5836 5835 5835 5835 5834 5833
5840 5841 5842 5843 5843 5843 5843 5847 5845 5846 5846 5846 5846 5846 5846 5846 5845 5846 5845 5844 5843 5842 5842 5842 5841 5841 5840 5839 5839 5838 5837 5836 5835 5835 5834 5834 5833 5833 5832 5832 5832 5832 5832 5831 5831 5831 5831 5830 5830